Volver al catálogo

GALAXY 18

ActivoComunicacionesGEO
NORAD 32951·PAYLOAD·🇺🇸 United States

Lanzado May 21, 2008 desde Sea Launch Platform

Loading…

TLE

ActualizadoSource: CelesTrak SupGP

Época: Sep 14, 2026, 00:00 UTC

1 32951C 08024A   26257.00000000  .00000116  00000+0  00000+0 0  2579
2 32951   0.0010 169.6261 0002983   6.3297  54.0316  1.00272121    19

Sigue GALAXY 18 en tiempo real con AllMySat

Download on the App Store